Wetterdaten: Woche 28.11.11 - 04.12.11 (KW48)
Datum Zeit Temperatur Luftfeuchte Luftdruck Niederschlag Windrichtung Sonnenschein Solar Wind
28.11.2011 00:00 3,2 C 94 % 1028,8 hPa 0,2 l/m S-SW 0,00 h 0 W/m 6,1 km/h (2 Bft)
28.11.2011 01:00 3,4 C 92 % 1028,9 hPa 0,0 l/m S-SW 0,00 h 0 W/m 5,1 km/h (1 Bft)
28.11.2011 02:00 3,6 C 93 % 1028,9 hPa 0,0 l/m N 0,00 h 0 W/m 1,9 km/h (1 Bft)
28.11.2011 03:00 3,6 C 94 % 1029,0 hPa 0,0 l/m N 0,00 h 0 W/m 1,1 km/h (0 Bft)
28.11.2011 04:00 3,4 C 94 % 1028,9 hPa 0,0 l/m N 0,00 h 0 W/m 0,1 km/h (0 Bft)
28.11.2011 05:00 3,3 C 94 % 1028,8 hPa 0,0 l/m N 0,00 h 0 W/m 0,3 km/h (0 Bft)
28.11.2011 06:00 3,3 C 95 % 1029,0 hPa 0,0 l/m N 0,00 h 0 W/m 1,1 km/h (0 Bft)
28.11.2011 07:00 3,2 C 95 % 1028,7 hPa 0,0 l/m N 0,00 h 5 W/m 0,7 km/h (0 Bft)
28.11.2011 08:00 2,8 C 95 % 1028,9 hPa 0,0 l/m N 0,00 h 26 W/m 2,9 km/h (1 Bft)
28.11.2011 09:00 3,9 C 95 % 1028,7 hPa 0,0 l/m N 0,25 h 87 W/m 3,9 km/h (1 Bft)
28.11.2011 10:00 6,1 C 91 % 1028,1 hPa 0,0 l/m O-NO 0,67 h 203 W/m 8,3 km/h (2 Bft)
28.11.2011 11:00 7,5 C 86 % 1027,3 hPa 0,0 l/m O-NO 0,92 h 256 W/m 13,7 km/h (3 Bft)
28.11.2011 12:00 7,3 C 86 % 1026,4 hPa 0,0 l/m O-NO 0,17 h 174 W/m 13,2 km/h (3 Bft)
28.11.2011 13:00 8,6 C 81 % 1025,3 hPa 0,0 l/m O-NO 1,00 h 271 W/m 16,6 km/h (3 Bft)
28.11.2011 14:00 8,3 C 81 % 1024,6 hPa 0,0 l/m O-NO 0,50 h 146 W/m 15,4 km/h (3 Bft)
28.11.2011 15:00 7,6 C 82 % 1024,4 hPa 0,0 l/m O-NO 0,00 h 40 W/m 15,2 km/h (3 Bft)
28.11.2011 16:00 6,7 C 85 % 1024,4 hPa 0,0 l/m O-NO 0,08 h 9 W/m 12,8 km/h (3 Bft)
28.11.2011 17:00 5,7 C 88 % 1024,3 hPa 0,0 l/m NO 0,00 h 0 W/m 9,8 km/h (2 Bft)
28.11.2011 18:00 4,1 C 92 % 1024,3 hPa 0,0 l/m N-NO 0,00 h 0 W/m 5,3 km/h (1 Bft)
28.11.2011 19:00 2,9 C 95 % 1024,2 hPa 0,0 l/m N 0,00 h 0 W/m 4,7 km/h (1 Bft)
28.11.2011 20:00 1,9 C 96 % 1024,2 hPa 0,0 l/m N 0,00 h 0 W/m 2,5 km/h (1 Bft)
28.11.2011 21:00 1,4 C 96 % 1024,2 hPa 0,0 l/m N 0,00 h 0 W/m 1,7 km/h (1 Bft)
28.11.2011 22:00 1,8 C 97 % 1024,2 hPa 0,0 l/m N 0,00 h 0 W/m 0,5 km/h (0 Bft)
28.11.2011 23:00 2,4 C 98 % 1024,2 hPa 0,0 l/m N 0,00 h 0 W/m 0,0 km/h (0 Bft)
29.11.2011 00:00 2,4 C 98 % 1023,8 hPa 0,0 l/m N 0,00 h 0 W/m 1,5 km/h (1 Bft)
29.11.2011 01:00 2,1 C 98 % 1023,2 hPa 0,0 l/m N 0,00 h 0 W/m 0,1 km/h (0 Bft)
29.11.2011 02:00 2,2 C 98 % 1023,2 hPa 0,0 l/m N 0,00 h 0 W/m 1,7 km/h (1 Bft)
29.11.2011 03:00 2,2 C 98 % 1023,1 hPa 0,0 l/m N 0,00 h 0 W/m 1,1 km/h (0 Bft)
29.11.2011 04:00 2,6 C 98 % 1022,9 hPa 0,0 l/m SW 0,00 h 0 W/m 2,5 km/h (1 Bft)
29.11.2011 05:00 2,9 C 98 % 1023,0 hPa 0,0 l/m SW 0,00 h 0 W/m 5,3 km/h (1 Bft)
29.11.2011 06:00 2,7 C 98 % 1022,9 hPa 0,0 l/m SW 0,00 h 0 W/m 4,5 km/h (1 Bft)
29.11.2011 07:00 2,6 C 98 % 1023,0 hPa 0,0 l/m SW 0,00 h 0 W/m 6,3 km/h (2 Bft)
29.11.2011 08:00 2,4 C 98 % 1023,1 hPa 0,0 l/m SW 0,00 h 12 W/m 5,1 km/h (1 Bft)
29.11.2011 09:00 2,3 C 98 % 1023,2 hPa 0,0 l/m SW 0,00 h 49 W/m 5,9 km/h (2 Bft)
29.11.2011 10:00 2,6 C 99 % 1023,0 hPa 0,0 l/m SW 0,00 h 69 W/m 5,9 km/h (2 Bft)
29.11.2011 11:00 3,0 C 99 % 1022,6 hPa 0,0 l/m S-SW 0,00 h 50 W/m 4,1 km/h (1 Bft)
29.11.2011 12:00 3,3 C 99 % 1021,8 hPa 0,0 l/m S-SW 0,00 h 104 W/m 6,4 km/h (2 Bft)
29.11.2011 13:00 4,0 C 98 % 1021,2 hPa 0,0 l/m S 0,17 h 128 W/m 6,5 km/h (2 Bft)
29.11.2011 14:00 5,1 C 94 % 1020,9 hPa 0,0 l/m S 0,42 h 124 W/m 5,9 km/h (2 Bft)
29.11.2011 15:00 5,5 C 92 % 1020,9 hPa 0,0 l/m S 0,58 h 77 W/m 5,1 km/h (1 Bft)
29.11.2011 16:00 5,3 C 91 % 1021,1 hPa 0,0 l/m S 0,08 h 14 W/m 3,6 km/h (1 Bft)
29.11.2011 17:00 4,5 C 92 % 1021,4 hPa 0,0 l/m S-SW 0,00 h 0 W/m 4,4 km/h (1 Bft)
29.11.2011 18:00 3,5 C 93 % 1021,8 hPa 0,0 l/m N 0,00 h 0 W/m 1,3 km/h (1 Bft)
29.11.2011 19:00 3,0 C 94 % 1022,5 hPa 0,0 l/m N 0,00 h 0 W/m 0,7 km/h (0 Bft)
29.11.2011 20:00 2,1 C 94 % 1022,7 hPa 0,0 l/m N 0,00 h 0 W/m 1,5 km/h (1 Bft)
29.11.2011 21:00 1,5 C 95 % 1023,1 hPa 0,0 l/m N 0,00 h 0 W/m 0,5 km/h (0 Bft)
29.11.2011 22:00 1,1 C 95 % 1023,6 hPa 0,0 l/m N 0,00 h 0 W/m 1,2 km/h (1 Bft)
29.11.2011 23:00 0,7 C 95 % 1024,0 hPa 0,0 l/m N 0,00 h 0 W/m 0,0 km/h (0 Bft)
30.11.2011 00:00 0,2 C 96 % 1024,3 hPa 0,0 l/m N 0,00 h 0 W/m 0,3 km/h (0 Bft)
30.11.2011 01:00 0,2 C 97 % 1024,5 hPa 0,0 l/m N 0,00 h 0 W/m 0,7 km/h (0 Bft)
30.11.2011 02:00 0,3 C 97 % 1024,9 hPa 0,0 l/m N 0,00 h 0 W/m 1,5 km/h (1 Bft)
30.11.2011 03:00 0,4 C 97 % 1025,2 hPa 0,0 l/m N 0,00 h 0 W/m 0,5 km/h (0 Bft)
30.11.2011 04:00 1,1 C 98 % 1025,3 hPa 0,0 l/m SW 0,00 h 0 W/m 6,6 km/h (2 Bft)
30.11.2011 05:00 3,2 C 99 % 1025,5 hPa 0,0 l/m SW 0,00 h 0 W/m 7,6 km/h (2 Bft)
30.11.2011 06:00 4,6 C 99 % 1025,8 hPa 0,0 l/m SW 0,00 h 0 W/m 11,7 km/h (2 Bft)
30.11.2011 07:00 5,5 C 97 % 1026,4 hPa 0,0 l/m SW 0,00 h 6 W/m 10,6 km/h (2 Bft)
30.11.2011 08:00 4,7 C 92 % 1027,3 hPa 0,0 l/m SW 0,17 h 27 W/m 3,6 km/h (1 Bft)
30.11.2011 09:00 4,9 C 94 % 1028,0 hPa 0,0 l/m N 0,00 h 35 W/m 1,2 km/h (1 Bft)
30.11.2011 10:00 6,7 C 91 % 1028,6 hPa 0,0 l/m SW 0,00 h 69 W/m 3,9 km/h (1 Bft)
30.11.2011 11:00 7,6 C 90 % 1028,7 hPa 0,0 l/m SW 0,00 h 66 W/m 3,9 km/h (1 Bft)
30.11.2011 12:00 8,5 C 90 % 1028,4 hPa 0,0 l/m W-SW 0,00 h 45 W/m 11,2 km/h (2 Bft)
30.11.2011 13:00 8,7 C 90 % 1028,1 hPa 0,0 l/m SW 0,00 h 50 W/m 7,0 km/h (2 Bft)
30.11.2011 14:00 8,4 C 90 % 1028,0 hPa 0,0 l/m SW 0,00 h 54 W/m 5,6 km/h (1 Bft)
30.11.2011 15:00 8,3 C 91 % 1028,0 hPa 0,0 l/m SW 0,00 h 22 W/m 4,3 km/h (1 Bft)
30.11.2011 16:00 8,1 C 91 % 1028,0 hPa 0,0 l/m SW 0,00 h 6 W/m 1,2 km/h (1 Bft)
30.11.2011 17:00 7,7 C 93 % 1028,3 hPa 0,0 l/m N-NW 0,00 h 0 W/m 7,5 km/h (2 Bft)
30.11.2011 18:00 7,3 C 95 % 1028,1 hPa 0,0 l/m O 0,00 h 0 W/m 5,6 km/h (1 Bft)
30.11.2011 19:00 6,8 C 95 % 1028,0 hPa 0,0 l/m O 0,00 h 0 W/m 6,8 km/h (2 Bft)
30.11.2011 20:00 6,8 C 95 % 1027,8 hPa 0,0 l/m N 0,00 h 0 W/m 2,0 km/h (1 Bft)
30.11.2011 21:00 6,5 C 94 % 1027,5 hPa 0,0 l/m N 0,00 h 0 W/m 0,5 km/h (0 Bft)
30.11.2011 22:00 5,0 C 92 % 1027,1 hPa 0,0 l/m N 0,00 h 0 W/m 0,4 km/h (0 Bft)
30.11.2011 23:00 3,7 C 93 % 1026,4 hPa 0,0 l/m N 0,00 h 0 W/m 0,4 km/h (0 Bft)
01.12.2011 00:00 2,9 C 94 % 1025,6 hPa 0,0 l/m N 0,00 h 0 W/m 0,0 km/h (0 Bft)
01.12.2011 01:00 2,2 C 95 % 1024,9 hPa 0,0 l/m N 0,00 h 0 W/m 0,0 km/h (0 Bft)
01.12.2011 02:00 1,8 C 96 % 1024,6 hPa 0,0 l/m N 0,00 h 0 W/m 0,5 km/h (0 Bft)
01.12.2011 03:00 1,5 C 96 % 1024,4 hPa 0,0 l/m N 0,00 h 0 W/m 0,3 km/h (0 Bft)
01.12.2011 04:00 1,3 C 97 % 1024,2 hPa 0,0 l/m N 0,00 h 0 W/m 0,7 km/h (0 Bft)
01.12.2011 05:00 2,0 C 98 % 1024,2 hPa 0,0 l/m W-SW 0,00 h 0 W/m 3,1 km/h (1 Bft)
01.12.2011 06:00 3,1 C 99 % 1024,0 hPa 0,2 l/m S-SW 0,00 h 0 W/m 2,9 km/h (1 Bft)
01.12.2011 07:00 3,6 C 99 % 1023,9 hPa 0,0 l/m S 0,00 h 0 W/m 2,3 km/h (1 Bft)
01.12.2011 08:00 4,2 C 99 % 1023,7 hPa 0,0 l/m S 0,00 h 13 W/m 7,2 km/h (2 Bft)
01.12.2011 09:00 4,5 C 99 % 1023,5 hPa 0,0 l/m S-SW 0,00 h 37 W/m 10,6 km/h (2 Bft)
01.12.2011 10:00 4,8 C 99 % 1023,2 hPa 0,0 l/m SW 0,00 h 89 W/m 12,1 km/h (2 Bft)
01.12.2011 11:00 5,5 C 99 % 1022,9 hPa 0,0 l/m SW 0,00 h 65 W/m 8,3 km/h (2 Bft)
01.12.2011 12:00 6,0 C 99 % 1021,9 hPa 0,0 l/m S-SW 0,00 h 115 W/m 15,0 km/h (3 Bft)
01.12.2011 13:00 6,7 C 97 % 1020,9 hPa 0,0 l/m SW 0,58 h 195 W/m 15,4 km/h (3 Bft)
01.12.2011 14:00 6,6 C 97 % 1020,3 hPa 0,0 l/m S-SW 0,33 h 126 W/m 11,8 km/h (2 Bft)
01.12.2011 15:00 6,4 C 96 % 1020,1 hPa 0,0 l/m SO 0,17 h 44 W/m 5,7 km/h (1 Bft)
01.12.2011 16:00 6,0 C 96 % 1019,9 hPa 0,0 l/m SO 0,08 h 14 W/m 2,9 km/h (1 Bft)
01.12.2011 17:00 5,2 C 95 % 1019,5 hPa 0,0 l/m SO 0,00 h 0 W/m 2,3 km/h (1 Bft)
01.12.2011 18:00 4,4 C 95 % 1019,3 hPa 0,0 l/m N 0,00 h 0 W/m 1,3 km/h (1 Bft)
01.12.2011 19:00 3,7 C 96 % 1019,1 hPa 0,0 l/m N 0,00 h 0 W/m 1,7 km/h (1 Bft)
01.12.2011 20:00 3,0 C 96 % 1018,4 hPa 0,0 l/m N 0,00 h 0 W/m 0,3 km/h (0 Bft)
01.12.2011 21:00 2,4 C 96 % 1017,7 hPa 0,0 l/m N 0,00 h 0 W/m 1,3 km/h (1 Bft)
01.12.2011 22:00 2,2 C 97 % 1017,3 hPa 0,0 l/m N 0,00 h 0 W/m 1,7 km/h (1 Bft)
01.12.2011 23:00 1,6 C 97 % 1016,7 hPa 0,0 l/m N 0,00 h 0 W/m 0,4 km/h (0 Bft)
02.12.2011 00:00 1,1 C 97 % 1015,9 hPa 0,0 l/m N 0,00 h 0 W/m 0,0 km/h (0 Bft)
02.12.2011 01:00 0,5 C 97 % 1015,3 hPa 0,0 l/m N 0,00 h 0 W/m 0,0 km/h (0 Bft)
02.12.2011 02:00 0,2 C 97 % 1015,2 hPa 0,0 l/m N 0,00 h 0 W/m 0,1 km/h (0 Bft)
02.12.2011 03:00 0,2 C 97 % 1015,0 hPa 0,0 l/m N 0,00 h 0 W/m 0,9 km/h (0 Bft)
02.12.2011 04:00 0,1 C 97 % 1014,7 hPa 0,0 l/m SO 0,00 h 0 W/m 1,6 km/h (1 Bft)
02.12.2011 05:00 1,5 C 99 % 1014,3 hPa 0,0 l/m S-SW 0,00 h 0 W/m 9,3 km/h (2 Bft)
02.12.2011 06:00 2,6 C 99 % 1014,1 hPa 0,2 l/m SW 0,00 h 0 W/m 5,9 km/h (2 Bft)
02.12.2011 07:00 2,6 C 98 % 1014,3 hPa 0,0 l/m N 0,00 h 5 W/m 1,6 km/h (1 Bft)
02.12.2011 08:00 2,2 C 98 % 1014,4 hPa 0,0 l/m S-SW 0,00 h 23 W/m 3,1 km/h (1 Bft)
02.12.2011 09:00 3,5 C 96 % 1014,8 hPa 0,0 l/m SW 0,08 h 65 W/m 7,0 km/h (2 Bft)
02.12.2011 10:00 7,2 C 83 % 1015,0 hPa 0,0 l/m SW 0,42 h 176 W/m 9,0 km/h (2 Bft)
02.12.2011 11:00 10,8 C 71 % 1014,5 hPa 0,0 l/m S-SW 1,00 h 336 W/m 12,4 km/h (3 Bft)
02.12.2011 12:00 13,1 C 58 % 1014,1 hPa 0,0 l/m W 0,58 h 245 W/m 21,3 km/h (4 Bft)
02.12.2011 13:00 13,7 C 54 % 1013,7 hPa 0,0 l/m W-SW 0,42 h 182 W/m 22,3 km/h (4 Bft)
02.12.2011 14:00 12,6 C 60 % 1013,8 hPa 0,0 l/m W 0,00 h 59 W/m 15,8 km/h (3 Bft)
02.12.2011 15:00 11,3 C 68 % 1014,1 hPa 0,0 l/m W 0,00 h 26 W/m 9,4 km/h (2 Bft)
02.12.2011 16:00 10,3 C 74 % 1014,2 hPa 0,0 l/m W 0,00 h 8 W/m 6,6 km/h (2 Bft)
02.12.2011 17:00 9,6 C 78 % 1014,6 hPa 0,0 l/m W-SW 0,00 h 0 W/m 8,7 km/h (2 Bft)
02.12.2011 18:00 9,5 C 79 % 1015,2 hPa 0,0 l/m W-NW 0,00 h 0 W/m 10,9 km/h (2 Bft)
02.12.2011 19:00 8,9 C 83 % 1015,5 hPa 0,0 l/m W-SW 0,00 h 0 W/m 6,9 km/h (2 Bft)
02.12.2011 20:00 8,1 C 87 % 1015,9 hPa 0,4 l/m W 0,00 h 0 W/m 8,7 km/h (2 Bft)
02.12.2011 21:00 7,4 C 92 % 1016,6 hPa 1,6 l/m W 0,00 h 0 W/m 7,5 km/h (2 Bft)
02.12.2011 22:00 6,8 C 94 % 1017,1 hPa 1,4 l/m W-NW 0,00 h 0 W/m 5,2 km/h (1 Bft)
02.12.2011 23:00 6,4 C 95 % 1017,4 hPa 1,4 l/m W-NW 0,00 h 0 W/m 2,4 km/h (1 Bft)
03.12.2011 00:00 6,0 C 95 % 1017,5 hPa 0,6 l/m N 0,00 h 0 W/m 0,8 km/h (0 Bft)
03.12.2011 01:00 5,5 C 95 % 1017,3 hPa 0,4 l/m N 0,00 h 0 W/m 3,9 km/h (1 Bft)
03.12.2011 02:00 5,1 C 96 % 1017,0 hPa 0,0 l/m SW 0,00 h 0 W/m 7,4 km/h (2 Bft)
03.12.2011 03:00 5,1 C 97 % 1016,7 hPa 0,4 l/m W-SW 0,00 h 0 W/m 11,8 km/h (2 Bft)
03.12.2011 04:00 5,1 C 97 % 1016,3 hPa 0,0 l/m W 0,00 h 0 W/m 15,6 km/h (3 Bft)
03.12.2011 05:00 4,9 C 97 % 1015,9 hPa 0,0 l/m W-SW 0,00 h 0 W/m 18,5 km/h (3 Bft)
03.12.2011 06:00 4,6 C 95 % 1016,1 hPa 0,0 l/m W-SW 0,00 h 0 W/m 13,4 km/h (3 Bft)
03.12.2011 07:00 4,1 C 94 % 1016,2 hPa 0,0 l/m W-SW 0,00 h 5 W/m 19,3 km/h (3 Bft)
03.12.2011 08:00 3,7 C 92 % 1016,2 hPa 0,2 l/m W-SW 0,00 h 16 W/m 18,5 km/h (3 Bft)
03.12.2011 09:00 3,5 C 92 % 1016,2 hPa 0,0 l/m W-SW 0,33 h 77 W/m 15,7 km/h (3 Bft)
03.12.2011 10:00 5,1 C 89 % 1016,0 hPa 0,0 l/m W-SW 0,25 h 133 W/m 20,1 km/h (4 Bft)
03.12.2011 11:00 6,3 C 83 % 1015,2 hPa 0,0 l/m W-SW 0,58 h 245 W/m 30,2 km/h (5 Bft)
03.12.2011 12:00 6,4 C 80 % 1014,3 hPa 0,0 l/m W-SW 0,17 h 132 W/m 27,6 km/h (4 Bft)
03.12.2011 13:00 6,3 C 78 % 1013,3 hPa 0,0 l/m W-SW 0,00 h 77 W/m 30,2 km/h (5 Bft)
03.12.2011 14:00 6,3 C 77 % 1012,8 hPa 0,0 l/m W-SW 0,00 h 43 W/m 29,2 km/h (5 Bft)
03.12.2011 15:00 6,2 C 80 % 1012,6 hPa 0,0 l/m W-SW 0,00 h 9 W/m 29,9 km/h (5 Bft)
03.12.2011 16:00 5,9 C 81 % 1012,7 hPa 0,0 l/m W-SW 0,00 h 0 W/m 37,9 km/h (5 Bft)
03.12.2011 17:00 5,8 C 79 % 1012,4 hPa 0,2 l/m W-SW 0,00 h 0 W/m 38,1 km/h (5 Bft)
03.12.2011 18:00 5,9 C 78 % 1012,4 hPa 0,0 l/m W-SW 0,00 h 0 W/m 32,5 km/h (5 Bft)
03.12.2011 19:00 6,0 C 79 % 1012,3 hPa 0,0 l/m W-SW 0,00 h 0 W/m 29,9 km/h (5 Bft)
03.12.2011 20:00 6,2 C 81 % 1011,9 hPa 0,0 l/m W-SW 0,00 h 0 W/m 34,7 km/h (5 Bft)
03.12.2011 21:00 6,2 C 83 % 1011,7 hPa 0,0 l/m W-SW 0,00 h 0 W/m 32,3 km/h (5 Bft)
03.12.2011 22:00 6,2 C 85 % 1011,5 hPa 0,0 l/m W-SW 0,00 h 0 W/m 30,9 km/h (5 Bft)
03.12.2011 23:00 6,1 C 86 % 1011,5 hPa 0,0 l/m W-SW 0,00 h 0 W/m 29,4 km/h (5 Bft)
04.12.2011 00:00 6,0 C 88 % 1011,1 hPa 0,0 l/m W-SW 0,00 h 0 W/m 27,4 km/h (4 Bft)
04.12.2011 01:00 6,0 C 89 % 1010,6 hPa 0,0 l/m W-SW 0,00 h 0 W/m 32,9 km/h (5 Bft)
04.12.2011 02:00 6,1 C 89 % 1010,6 hPa 0,0 l/m SW 0,00 h 0 W/m 31,7 km/h (5 Bft)
04.12.2011 03:00 6,3 C 88 % 1010,1 hPa 0,0 l/m W-SW 0,00 h 0 W/m 31,0 km/h (5 Bft)
04.12.2011 04:00 6,6 C 87 % 1009,6 hPa 0,0 l/m SW 0,00 h 0 W/m 31,1 km/h (5 Bft)
04.12.2011 05:00 6,8 C 88 % 1009,4 hPa 0,0 l/m W-SW 0,00 h 0 W/m 28,6 km/h (4 Bft)
04.12.2011 06:00 6,8 C 90 % 1009,3 hPa 0,0 l/m W-SW 0,00 h 0 W/m 28,0 km/h (4 Bft)
04.12.2011 07:00 6,9 C 91 % 1008,9 hPa 0,0 l/m W-SW 0,00 h 0 W/m 29,7 km/h (5 Bft)
04.12.2011 08:00 7,4 C 91 % 1008,8 hPa 0,0 l/m SW 0,00 h 18 W/m 28,8 km/h (5 Bft)
04.12.2011 09:00 8,0 C 89 % 1008,9 hPa 0,0 l/m W-SW 0,00 h 59 W/m 37,7 km/h (5 Bft)
04.12.2011 10:00 8,6 C 88 % 1009,0 hPa 0,0 l/m W 0,00 h 62 W/m 36,6 km/h (5 Bft)
04.12.2011 11:00 8,8 C 88 % 1008,5 hPa 0,0 l/m W-SW 0,00 h 60 W/m 31,5 km/h (5 Bft)
04.12.2011 12:00 9,5 C 86 % 1007,9 hPa 0,0 l/m W-SW 0,00 h 116 W/m 33,7 km/h (5 Bft)
04.12.2011 13:00 10,2 C 82 % 1007,4 hPa 0,0 l/m W-SW 0,00 h 98 W/m 35,8 km/h (5 Bft)
04.12.2011 14:00 10,1 C 83 % 1007,0 hPa 0,0 l/m W-SW 0,00 h 49 W/m 32,2 km/h (5 Bft)
04.12.2011 15:00 9,3 C 88 % 1006,8 hPa 0,0 l/m W-SW 0,00 h 18 W/m 26,5 km/h (4 Bft)
04.12.2011 16:00 9,4 C 86 % 1005,7 hPa 0,0 l/m W-SW 0,00 h 8 W/m 30,3 km/h (5 Bft)
04.12.2011 17:00 9,8 C 83 % 1004,8 hPa 0,0 l/m W-SW 0,00 h 0 W/m 34,1 km/h (5 Bft)
04.12.2011 18:00 10,0 C 82 % 1004,2 hPa 0,0 l/m W-SW 0,00 h 0 W/m 35,0 km/h (5 Bft)
04.12.2011 19:00 10,1 C 81 % 1003,3 hPa 0,0 l/m SW 0,00 h 0 W/m 32,9 km/h (5 Bft)
04.12.2011 20:00 10,2 C 82 % 1002,5 hPa 0,0 l/m W 0,00 h 0 W/m 31,1 km/h (5 Bft)
04.12.2011 21:00 9,8 C 85 % 1001,3 hPa 0,0 l/m W 0,00 h 0 W/m 35,7 km/h (5 Bft)
04.12.2011 22:00 10,3 C 82 % 999,9 hPa 0,0 l/m W-SW 0,00 h 0 W/m 42,3 km/h (6 Bft)
04.12.2011 23:00 10,3 C 81 % 998,4 hPa 0,0 l/m W 0,00 h 0 W/m 40,5 km/h (6 Bft)
Min-Datum _ 02.12.11 02.12.11 04.12.11 - - - - 28.11.11
_ Min-Zeit 04:10 13:35 23:50 - - - - 02:45
Minimum _ 0,0 C 52 % 997,8 hPa - - - - 0,0 km/h (0 Bft)
Max-Datum _ 02.12.11 01.12.11 28.11.11 02.12.11 - 28.11.11 03.12.11 04.12.11
_ Max-Zeit 13:35 01:05 06:10 21:10 - 09:40 11:40 22:55
Maximum _ 14,2 C 100 % 1029,2 hPa 1,6 l/m - 0,08 h 425 W/m 56,3 km/h
W-SW (7 Bft)
Durchschnitt _ 5,2 C 91 % 1019,2 hPa #7,2 l/m W-SW #10:00 h 80 W/m 11,6 km/h (2 Bft)